Home   Weather   Barcelona   Past weeks

Flag for Spain Past Weather in Barcelona, Barcelona, Spain — Yesterday and Last 2 Weeks

Now
73 °F

Sunny.


Feels Like: 76 °F
Forecast: 71 / 86 °F
Wind: 8 mph from Northwest

Location: Barcelona Airport

Current Time: Aug 17, 2017 at 8:10:58 am

Latest Report: Aug 17, 2017 at 7:30 am


Visibility: 10 mi

Pressure: 30.09 "Hg

Humidity: 69%

Dew Point: 63 °F

Location of BarcelonaLocation

Past Weather in Barcelona — Graph

°F

Barcelona Temperature Yesterday

Maximum temperature yesterday: 82 °F (at 1:00 pm)
Minimum temperature yesterday: 75 °F (at 5:30 am)
Average temperature yesterday: 78 °F

High & Low Weather Summary for the Past Weeks

 TemperatureHumidityPressure
High91 °F (Aug 3, 10:30 am)94% (Aug 3, 3:30 am)30.18 "Hg (Aug 3, 3:30 am)
Low63 °F (Aug 10, 7:00 am)34% (Aug 10, 1:00 pm)29.80 "Hg (Aug 8, 4:00 am)
Average78 °F68%30.04 "Hg
* Reported Aug 2 7:00 am — Aug 17 7:00 am, Barcelona. Weather by CustomWeather, © 2017

Note: Actual official high and low records may vary slightly from our data, if they occured in-between our weather recording intervals... More about our weather records

Advertising

Barcelona Weather History for the Previous 24 Hours

Scroll right to see more
 ConditionsComfort  
Time TempWeatherWind HumidityBarometerVisibility
7:00 am
Thu, Aug 17
73 °FPassing clouds.8 mph69%30.09 "HgN/A
6:30 am73 °FPassing clouds.9 mph69%30.07 "HgN/A
6:00 am73 °FPassing clouds.9 mph69%30.07 "HgN/A
5:30 am75 °FPassing clouds.10 mph65%30.07 "HgN/A
5:00 am75 °FPassing clouds.9 mph61%30.07 "HgN/A
4:30 am75 °FPassing clouds.9 mph61%30.07 "HgN/A
4:00 am73 °FPassing clouds.9 mph65%30.07 "HgN/A
3:30 am73 °FPassing clouds.8 mph65%30.07 "HgN/A
3:00 am73 °FPassing clouds.8 mph61%30.07 "HgN/A
2:00 am75 °FPassing clouds.6 mph61%30.09 "HgN/A
1:30 am75 °FPassing clouds.5 mph61%30.09 "HgN/A
1:00 am75 °FPassing clouds.5 mph65%30.09 "HgN/A
12:30 am75 °FPassing clouds.3 mph69%30.09 "HgN/A
12:00 am77 °FPassing clouds.3 mph61%30.09 "HgN/A
11:30 pm
Wed, Aug 16
77 °FPassing clouds.2 mph69%30.09 "HgN/A
11:00 pm77 °FPassing clouds.5 mph69%30.09 "HgN/A
10:30 pm77 °FPassing clouds.3 mph69%30.09 "HgN/A
10:00 pm77 °FPassing clouds.7 mph69%30.09 "HgN/A
9:30 pm77 °FPassing clouds.9 mph69%30.09 "HgN/A
9:00 pm79 °FClear.9 mph65%30.07 "Hg10 mi
8:30 pm79 °FPassing clouds.10 mph70%30.07 "HgN/A
8:00 pm79 °FPassing clouds.10 mph58%30.07 "HgN/A
7:30 pm81 °FSunny.9 mph62%30.07 "Hg10 mi
7:00 pm81 °FSunny.9 mph66%30.07 "Hg10 mi
6:30 pm81 °FSunny.10 mph66%30.07 "Hg10 mi
6:00 pm81 °FPassing clouds.9 mph66%30.07 "HgN/A
5:30 pm81 °FPassing clouds.10 mph66%30.07 "HgN/A
5:00 pm81 °FPassing clouds.10 mph58%30.07 "HgN/A
4:30 pm82 °FPassing clouds.9 mph58%30.07 "HgN/A
4:00 pm82 °FPassing clouds.10 mph62%30.07 "HgN/A
3:30 pm81 °FPassing clouds.10 mph66%30.07 "HgN/A
3:00 pm82 °FPassing clouds.12 mph66%30.07 "HgN/A
2:30 pm81 °FPassing clouds.13 mph66%30.09 "HgN/A
2:00 pm81 °FPassing clouds.10 mph66%30.09 "HgN/A
1:30 pm81 °FPassing clouds.9 mph70%30.09 "HgN/A
1:00 pm82 °FPassing clouds.9 mph62%30.09 "HgN/A
12:30 pm81 °FPassing clouds.8 mph70%30.09 "HgN/A
12:00 pm81 °FPassing clouds.8 mph70%30.09 "HgN/A
11:30 am79 °FPassing clouds.9 mph74%30.09 "HgN/A
11:00 am79 °FPassing clouds.8 mph74%30.09 "HgN/A
10:30 am77 °FPassing clouds.9 mph79%30.09 "HgN/A
10:00 am79 °FPassing clouds.9 mph74%30.09 "HgN/A
9:30 am77 °FPassing clouds.8 mph74%30.09 "HgN/A
9:00 am77 °FPassing clouds.7 mph79%30.09 "HgN/A
8:30 am75 °FPassing clouds.6 mph83%30.09 "HgN/A
8:00 am75 °FPassing clouds.7 mph83%30.09 "HgN/A
Weather by CustomWeather, © 2017

See weather overviewHow to use our weather pages